IRIDIUM 35 [+]

Last updated on Thu Apr 12 2018 00:19:34 GMT+0000 (Coordinated Universal Time)

1 24966U 97056B 18101.32567303 .00000170 00000-0 53471-4 0 9996 2 24966 86.4020 194.0703 0002258 97.8125 262.3327 14.34224992 75267
UTC large
Height (km)
Speed (km/s)
/
Latitude / Longitude
Inclination (degrees)
Orbital Period (minutes)
Azimuth
Elevation
Range (km)
Doppler Factor

Next 0 passes for location: London (51.5072 / 0.1276)

Sorry there are no passes over London.